CZ-6A DEB, 54323

Orbit data source: Space-Track

CZ-6A DEB, 54323 is space debris in SSO originally from a launch on Fri, 11 Nov 2022 UTC launched from the Taiyaun Space Center, China (TSC). Debris objects in space refer to the collection of defunct objects orbiting the Earth. Examples of debris include non-operational satellites, rocket bodies, and fragments generated from explosions, collisions, or faulty payload assembly.

Loading next visibility...
Identifier
54323, 2022-151BS
Orbit
SSO
Country
Flag of CNCN / PRC
Related business
Manufacturer
SAST
Mission
Spacecraft
Bus & Motor
Unknown
Mass
Unknown
Launch date (UTC)
2022-11-11 (4 years ago)
Launch vehicle
Unknown
Launch site
Taiyaun Space Center, China (TSC)
Object type
Payload
Rocket body
Debris
Shape & HBR
Unknown shape, 0.3 m
Radar Cross Section
Medium (>0.1 m² and <1 m²)

Expand to show TLE details & history
Last TLE update: 2 days ago

TLE from 2 days ago
0 CZ-6A DEB
1 54323U 22151BS  26171.24589541  .00000410  00000-0  25381-3 0  9990
2 54323  98.8459 168.4293 0050853 323.5809  36.1905 14.10156603184729
Epoch: 2026-06-20T05:54Z
TLE epoch observation values (Epoch: 2026-06-20T05:54:05.363Z)
Latitude
-0.00011°
Longitude
171.44369°
Altitude
832.091 km
Speed
7.452 km/s
True Right ascension
11h 13m 43s
True Declination
0° 00' 00"
Sunlit
Object was in daylight at epoch
Visualization orbit readout
Latitude
Unknown
Longitude
Unknown
Altitude
Unknown
Speed
Unknown
Apparent Right ascension
Unknown
Apparent Declination
Unknown
Sunlit
N/A
Visualization observer readout
Local Sidereal Time
21:33:39
Azimuth
Unknown
Elevation
Unknown
Doppler factor
Unknown
Orbital elements
Apogee altitude
892.802 km
Perigee altitude
819.226 km
Semi-major axis
7,234.151 km
Eccentricity
0.00509
Inclination
98.8459°
RAAN
168.4293°
Arg. of periapsis
323.5809°
True anomaly
36.53636°
Mean anomaly
36.1905°
Eccentric anomaly
36.36325°
Mean motion
3.52746 °/min
Orbital period
102.06 mins
BSTAR
0.00025381
Loading maneuver chart data...
Computing Atmospheric mass density...
Loading historical data...
Loading historical data...
Loading historical data...
Loading historical data...
Loading historical data...
Loading historical data...
Loading historical data...

Documentation

Showing up to 5 results
|